TimeEDT,TemperatureF,Dew PointF,Humidity,Sea Level PressureIn,VisibilityMPH,Wind Direction,Wind SpeedMPH,Gust SpeedMPH,PrecipitationIn,Events,Conditions,WindDirDegrees,DateUTC
12:53 AM,42.1,39.0,89,30.41,10.0,South,6.9,-,N/A,,Clear,170,2013-04-16 04:53:00
1:53 AM,42.1,37.9,85,30.40,10.0,SSE,4.6,-,N/A,,Clear,150,2013-04-16 05:53:00
2:53 AM,41.0,37.0,86,30.40,10.0,SSE,4.6,-,N/A,,Clear,150,2013-04-16 06:53:00
3:53 AM,42.1,37.9,85,30.40,10.0,SSE,5.8,-,N/A,,Clear,150,2013-04-16 07:53:00
4:53 AM,41.0,37.9,89,30.40,10.0,SE,6.9,-,N/A,,Clear,130,2013-04-16 08:53:00
5:53 AM,41.0,37.9,89,30.40,10.0,SE,6.9,-,N/A,,Clear,140,2013-04-16 09:53:00
6:53 AM,43.0,39.0,86,30.41,10.0,SSE,5.8,-,N/A,,Clear,150,2013-04-16 10:53:00
8:53 AM,48.0,36.0,63,30.41,10.0,SSE,11.5,-,N/A,,Clear,150,2013-04-16 12:53:00
9:53 AM,48.9,41.0,74,30.40,10.0,SSE,13.8,-,N/A,,Clear,150,2013-04-16 13:53:00
10:53 AM,50.0,42.1,74,30.40,10.0,South,17.3,23.0,N/A,,Clear,170,2013-04-16 14:53:00
11:53 AM,51.1,42.1,71,30.37,10.0,South,13.8,23.0,N/A,,Overcast,170,2013-04-16 15:53:00
12:53 PM,52.0,43.0,71,30.35,10.0,South,17.3,24.2,N/A,,Clear,180,2013-04-16 16:53:00
1:53 PM,53.1,44.1,71,30.32,10.0,South,17.3,28.8,N/A,,Clear,190,2013-04-16 17:53:00
2:53 PM,52.0,44.1,74,30.31,10.0,South,16.1,24.2,N/A,,Clear,180,2013-04-16 18:53:00
3:53 PM,53.1,44.1,71,30.29,10.0,South,15.0,-,N/A,,Clear,190,2013-04-16 19:53:00
4:53 PM,51.1,44.1,77,30.26,10.0,South,13.8,26.5,N/A,,Clear,180,2013-04-16 20:53:00
5:53 PM,50.0,44.1,80,30.24,10.0,South,11.5,-,N/A,,Clear,190,2013-04-16 21:53:00
6:53 PM,50.0,45.0,83,30.18,10.0,South,17.3,25.3,N/A,,Overcast,190,2013-04-16 22:53:00
7:37 PM,50.0,46.4,87,30.17,10.0,SSW,13.8,21.9,N/A,,Mostly Cloudy,200,2013-04-16 23:37:00
7:53 PM,50.0,46.0,86,30.17,10.0,South,11.5,20.7,N/A,,Overcast,190,2013-04-16 23:53:00
8:53 PM,50.0,46.0,86,30.18,10.0,SSW,11.5,23.0,N/A,,Overcast,200,2013-04-17 00:53:00
9:53 PM,50.0,46.0,86,30.18,10.0,SSW,9.2,18.4,N/A,,Overcast,200,2013-04-17 01:53:00
10:53 PM,50.0,46.0,86,30.16,10.0,SSW,10.4,17.3,N/A,,Overcast,210,2013-04-17 02:53:00
11:26 PM,50.0,46.4,87,30.14,8.0,SSW,12.7,20.7,0.00,Rain,Light Rain,210,2013-04-17 03:26:00
11:53 PM,48.9,46.9,93,30.15,10.0,SSW,9.2,16.1,0.00,Rain,Light Rain,210,2013-04-17 03:53:00